Ashtabula, OH

4:13 PM EST on December 11, 2017 (GMT -0500)
Ashtabula County

Weather History for KHZY - January, 2014

Change the Weather History Date:

Tuesday, January 28, 2014

  Actual Average (KGKJ) Record (KGKJ)
Temperature  
Mean Temperature -2 °F -  
Max Temperature 6 °F 31 °F 57 °F (2002)
Min Temperature -9 °F 14 °F -11 °F (2014)
Degree Days  
Heating Degree Days 66    
Moisture  
Dew Point -12 °F    
Average Humidity 64    
Maximum Humidity 80    
Minimum Humidity 45    
Precipitation  
Precipitation 0.00 in - - ()
Sea Level Pressure  
Sea Level Pressure 30.34 in    
Wind  
Wind Speed 9 mph (SW)    
Max Wind Speed 15 mph    
Max Gust Speed 20 mph    
Visibility 9 miles    
Events Snow    
Averages and records for this station are not official NWS values.
T = Trace of Precipitation, MM = Missing Value Source: NWS Daily Summary

Daily Weather History Graph

Daily Weather History Graph

Search for Another Location

Airport or City:

Trip Planner

Search our weather history database for the weather conditions in past years. The results will help you decide how hot, cold, wet, or windy it might be!

Date:

Astronomy

Jan. 28, 2014 Rise Set
Actual Time 7:38 AM EST 5:33 PM EST
Civil Twilight 7:09 AM EST 6:02 PM EST
Nautical Twilight 6:35 AM EST 6:36 PM EST
Astronomical Twilight 6:02 AM EST 7:09 PM EST
Moon 5:19 AM EST (1/28) 3:21 PM EST (1/28)
Length of Visible Light 10h 53m
Length of Day
9h 54m
Waning Crescent, 7% of the Moon is Illuminated
Jan 28
Waning Crescent
Jan 30
New
Feb 6
First Quarter
Feb 14
Full
Feb 22
Last Quarter

Hourly Weather History & Observations

Time (EST) Temp. Windchill Dew Point Humidity Pressure Visibility Wind Dir Wind Speed Gust Speed Precip Events Conditions
12:23 AM 1.4 °F -13.5 °F -7.6 °F 66% 30.25 in 5.0 mi WNW 9.2 mph - 0.00 in Snow Light Snow
12:53 AM 1.0 °F -18.0 °F -9.9 °F 60% 30.32 in 10.0 mi WNW 15.0 mph 19.6 mph 0.00 in   Mostly Cloudy
1:10 AM 1.4 °F -13.5 °F -11.2 °F 56% 30.26 in 10.0 mi WNW 9.2 mph - N/A   Scattered Clouds
1:22 AM -0.4 °F -14.7 °F -9.4 °F 66% 30.27 in 10.0 mi WNW 8.1 mph - N/A   Mostly Cloudy
1:37 AM -0.4 °F -14.7 °F -9.4 °F 66% 30.27 in 10.0 mi West 8.1 mph - N/A   Mostly Cloudy
1:53 AM -0.0 °F -13.0 °F -11.0 °F 60% 30.34 in 10.0 mi West 6.9 mph - N/A   Partly Cloudy
2:53 AM -6.0 °F -18.6 °F -15.0 °F 65% 30.36 in 10.0 mi WSW 5.8 mph - N/A   Clear
3:51 AM -5.8 °F -18.4 °F -14.8 °F 65% 30.29 in 10.0 mi WSW 5.8 mph - N/A   Mostly Cloudy
3:53 AM -6.0 °F -20.1 °F -14.1 °F 68% 30.36 in 9.0 mi WSW 6.9 mph - N/A   Mostly Cloudy
4:34 AM -7.6 °F -18.8 °F -13.0 °F 77% 30.29 in 10.0 mi SW 4.6 mph - 0.00 in   Scattered Clouds
4:46 AM -5.8 °F -18.4 °F -11.2 °F 77% 30.30 in 3.0 mi SW 5.8 mph - 0.00 in Snow Light Snow
4:51 AM -5.8 °F -21.2 °F -11.2 °F 77% 30.30 in 1.8 mi SSW 8.1 mph - 0.00 in Snow Light Snow
4:53 AM -5.1 °F -20.4 °F -9.9 °F 80% 30.37 in 1.8 mi SSW 8.1 mph - 0.00 in Snow Light Snow
5:07 AM -5.8 °F -21.2 °F -11.2 °F 77% 30.31 in 2.5 mi SSW 8.1 mph - 0.00 in Snow Light Snow
5:14 AM -5.8 °F -19.9 °F -11.2 °F 77% 30.30 in 4.0 mi SSW 6.9 mph - 0.00 in   Haze
5:53 AM -8.0 °F -22.5 °F -14.1 °F 75% 30.38 in 8.0 mi South 6.9 mph - 0.00 in   Overcast
6:17 AM -9.4 °F -25.6 °F -14.8 °F 77% 30.31 in 10.0 mi SSW 8.1 mph - N/A   Scattered Clouds
6:53 AM -9.0 °F -23.8 °F -15.0 °F 75% 30.39 in 10.0 mi SSW 6.9 mph - N/A   Clear
7:53 AM -9.9 °F -23.4 °F -16.1 °F 74% 30.43 in 10.0 mi South 5.8 mph - N/A   Clear
8:53 AM -9.0 °F -25.2 °F -15.0 °F 75% 30.44 in 10.0 mi South 8.1 mph - N/A   Clear
9:53 AM -6.0 °F -23.6 °F -11.9 °F 75% 30.44 in 8.0 mi SSW 10.4 mph - N/A   Clear
10:53 AM -0.9 °F -17.4 °F -9.0 °F 69% 30.45 in 10.0 mi SW 10.4 mph - N/A   Clear
11:53 AM 1.9 °F -15.5 °F -8.0 °F 63% 30.43 in 10.0 mi SSW 12.7 mph - N/A   Clear
12:53 PM 3.9 °F -11.3 °F -7.1 °F 60% 30.38 in 10.0 mi SSW 10.4 mph - N/A   Partly Cloudy
1:53 PM 5.0 °F -10.8 °F -8.0 °F 55% 30.36 in 10.0 mi SSW 11.5 mph - N/A   Scattered Clouds
2:53 PM 6.1 °F -9.5 °F -8.0 °F 53% 30.34 in 10.0 mi SW 11.5 mph - N/A   Clear
3:53 PM 6.1 °F -7.8 °F -9.9 °F 48% 30.33 in 10.0 mi SSW 9.2 mph - N/A   Clear
4:53 PM 6.1 °F -7.8 °F -11.0 °F 45% 30.33 in 10.0 mi SSW 9.2 mph - N/A   Clear
5:53 PM 3.0 °F -9.3 °F -13.0 °F 47% 30.33 in 10.0 mi SSW 6.9 mph - N/A   Clear
6:53 PM 1.9 °F -10.6 °F -13.0 °F 50% 30.32 in 10.0 mi SSW 6.9 mph - N/A   Clear
7:53 PM 1.0 °F -14.0 °F -14.1 °F 49% 30.32 in 10.0 mi SSW 9.2 mph - N/A   Clear
8:53 PM -0.0 °F -15.3 °F -14.1 °F 52% 30.30 in 10.0 mi SSW 9.2 mph - N/A   Clear
9:53 PM -0.0 °F -16.3 °F -14.1 °F 52% 30.28 in 10.0 mi SW 10.4 mph - N/A   Clear
10:53 PM -0.9 °F -16.4 °F -15.0 °F 52% 30.29 in 10.0 mi SW 9.2 mph - N/A   Clear
11:53 PM -2.9 °F -15.0 °F -15.0 °F 56% 30.29 in 10.0 mi SW 5.8 mph - N/A   Clear